User: anonymous   Login
Location: Newark
(35.6799°N, 139.7636°E)
Time: 19:52:10
(UTC+00:00)
Language:

Explorer 11/Cluster Stage 4 - Orbit

View from above orbital plane
View from above orbital plane
View from above satellite
View from above satellite

Ground track
Ground track

The orbit data is extracted from the following two-line orbital elements,

1   107U 61013A   21026.32419325  .00001129  00000-0  13295-3 0  9995
2   107  28.7913   2.6316 0545914 337.8058  19.9701 14.09104471997238
Epoch (UTC): 26 January 2021 07:46:50
Eccentricity: 0.0545914
inclination: 28.7913°
perigee height: 467 km
apogee height: 1258 km
right ascension of ascending node: 2.6316°
argument of perigee: 337.8058°
revolutions per day: 14.09104471
mean anomaly at epoch: 19.9701°
orbit number at epoch: 99723

The dashed part of the orbit path shows where the satellite is in the earth's shadow,  

DLR